Puyallup, WA
on Saturday, November 10, 2012

Saturday
Previous Day Next Day
Daily Summary
 ActualAverage (KSEA)Record (KSEA)
Temperature
Mean Temperature °F / °C 47°F / 8°C  
Max Temperature 44°F / 7°C 52°F / 11°C 63°F / 17°C (1997)
Min Temperature 23°F / -5°C 41°F / 5°C 30°F / -1°C (1948)
Degree Days
Heating Degree Days 32 18  
Month to date heating degree days 173  
Since 1 July heating degree days 770  
Cooling Degree Days 0 0  
Month to date cooling degree days 0  
Year to date cooling degree days 189  
Moisture
Dew Point 28°F / -2°C   
Average Humidity 87    
Maximum Humidity 100    
Minimum Humidity 49    
Precipitation
Precipitation 0.00 in / 0.00 cm 0.22 in / 5.59 cm 1.08 in / 2.74 cm (1962)
Month to date precipitation 2.04  
Year to date precipitation 27.61  
Snow
Snow 0.00 in / 0.00 cm in / cm T in / T cm (1986)
Month to date snowfall  
Since 1 July snowfall  
Snow Depth in / cm   
Wind
Wind Speed 0 mph / 0 km/h   
Max Wind Speed 0 mph / 0 km/h   
Max Gust Speed mph / km/h   
Visibility 10 miles / 16 kilometers   
Events Rain   

Key: T is trace of precipitation, MM is missing value
Source: NWS Daily Summary
Time(PST)TemperatureDew PointHumidity Pressure Visibility Wind DirectionWind SpeedGust SpeedPrecipitationEvents Conditions
12:15 AM 26.6°F / -3.0°C 26.6°F / -3.0°C 100% 29.95 in / 1014.1 hPa 10.0 miles / 16.1 kilometers Calm Calm - N/A   Clear
12:35 AM 26.6°F / -3.0°C 26.6°F / -3.0°C 100% 29.95 in / 1014.1 hPa 10.0 miles / 16.1 kilometers Calm Calm - N/A   Clear
12:55 AM 26.6°F / -3.0°C 26.6°F / -3.0°C 100% 29.96 in / 1014.4 hPa 10.0 miles / 16.1 kilometers Calm Calm - N/A   Clear
1:15 AM 26.6°F / -3.0°C 26.6°F / -3.0°C 100% 29.96 in / 1014.4 hPa 10.0 miles / 16.1 kilometers Calm Calm - N/A   Clear
1:35 AM 24.8°F / -4.0°C 24.8°F / -4.0°C 100% 29.97 in / 1014.8 hPa 10.0 miles / 16.1 kilometers Calm Calm - N/A   Clear
1:55 AM 24.8°F / -4.0°C 24.8°F / -4.0°C 100% 29.97 in / 1014.8 hPa 9.0 miles / 14.5 kilometers Calm Calm - N/A   Clear
2:15 AM 26.6°F / -3.0°C 26.6°F / -3.0°C 100% 29.97 in / 1014.8 hPa 10.0 miles / 16.1 kilometers Calm Calm - N/A   Clear
2:35 AM 26.6°F / -3.0°C 26.6°F / -3.0°C 100% 29.98 in / 1015.1 hPa 10.0 miles / 16.1 kilometers Calm Calm - N/A   Clear
2:55 AM 24.8°F / -4.0°C 24.8°F / -4.0°C 100% 29.98 in / 1015.1 hPa 10.0 miles / 16.1 kilometers Calm Calm - N/A   Clear
3:15 AM 24.8°F / -4.0°C 24.8°F / -4.0°C 100% 29.98 in / 1015.1 hPa 10.0 miles / 16.1 kilometers Calm Calm - N/A   Clear
3:35 AM 24.8°F / -4.0°C 24.8°F / -4.0°C 100% 29.99 in / 1015.5 hPa 10.0 miles / 16.1 kilometers Calm Calm - N/A   Clear
4:15 AM 24.8°F / -4.0°C 24.8°F / -4.0°C 100% 29.99 in / 1015.5 hPa 10.0 miles / 16.1 kilometers Calm Calm - N/A   Clear
4:35 AM 24.8°F / -4.0°C 24.8°F / -4.0°C 100% 30.00 in / 1015.8 hPa 10.0 miles / 16.1 kilometers Calm Calm - N/A   Clear
4:55 AM 24.8°F / -4.0°C 24.8°F / -4.0°C 100% 30.00 in / 1015.8 hPa 10.0 miles / 16.1 kilometers Calm Calm - N/A   Clear
5:15 AM 23.0°F / -5.0°C 23.0°F / -5.0°C 100% 30.01 in / 1016.1 hPa 10.0 miles / 16.1 kilometers Calm Calm - N/A   Clear
5:35 AM 24.8°F / -4.0°C 24.8°F / -4.0°C 100% 30.02 in / 1016.5 hPa 10.0 miles / 16.1 kilometers Calm Calm - N/A   Scattered Clouds
5:55 AM 24.8°F / -4.0°C 24.8°F / -4.0°C 100% 30.03 in / 1016.8 hPa 10.0 miles / 16.1 kilometers Calm Calm - N/A   Mostly Cloudy
6:15 AM 26.6°F / -3.0°C 26.6°F / -3.0°C 100% 30.03 in / 1016.8 hPa 10.0 miles / 16.1 kilometers Calm Calm - N/A   Mostly Cloudy
6:35 AM 26.6°F / -3.0°C 26.6°F / -3.0°C 100% 30.03 in / 1016.8 hPa 10.0 miles / 16.1 kilometers Calm Calm - N/A   Scattered Clouds
6:55 AM 26.6°F / -3.0°C 26.6°F / -3.0°C 100% 30.03 in / 1016.8 hPa 10.0 miles / 16.1 kilometers Calm Calm - N/A   Partly Cloudy
7:15 AM 26.6°F / -3.0°C 26.6°F / -3.0°C 100% 30.04 in / 1017.2 hPa 10.0 miles / 16.1 kilometers Calm Calm - N/A   Clear
7:35 AM 24.8°F / -4.0°C 24.8°F / -4.0°C 100% 30.05 in / 1017.5 hPa 9.0 miles / 14.5 kilometers Calm Calm - N/A   Clear
7:55 AM 26.6°F / -3.0°C 26.6°F / -3.0°C 100% 30.06 in / 1017.8 hPa 10.0 miles / 16.1 kilometers Calm Calm - N/A   Mostly Cloudy
8:15 AM 28.4°F / -2.0°C 28.4°F / -2.0°C 100% 30.06 in / 1017.8 hPa 10.0 miles / 16.1 kilometers Calm Calm - N/A   Mostly Cloudy
8:35 AM 30.2°F / -1.0°C 30.2°F / -1.0°C 100% 30.07 in / 1018.2 hPa 10.0 miles / 16.1 kilometers Calm Calm - N/A   Scattered Clouds
8:55 AM 32.0°F / 0.0°C 32.0°F / 0.0°C 100% 30.08 in / 1018.5 hPa 10.0 miles / 16.1 kilometers Calm Calm - N/A   Overcast
9:15 AM 32.0°F / 0.0°C 32.0°F / 0.0°C 100% 30.07 in / 1018.2 hPa 10.0 miles / 16.1 kilometers Calm Calm - N/A   Scattered Clouds
9:35 AM 32.0°F / 0.0°C 32.0°F / 0.0°C 100% 30.08 in / 1018.5 hPa 10.0 miles / 16.1 kilometers Calm Calm - N/A   Scattered Clouds
9:55 AM 33.8°F / 1.0°C 32.0°F / 0.0°C 93% 30.08 in / 1018.5 hPa 10.0 miles / 16.1 kilometers Calm Calm - N/A   Mostly Cloudy
10:15 AM 37.4°F / 3.0°C 33.8°F / 1.0°C 87% 30.09 in / 1018.8 hPa 10.0 miles / 16.1 kilometers Calm Calm - N/A Rain Light Rain
10:35 AM 37.4°F / 3.0°C 33.8°F / 1.0°C 87% 30.10 in / 1019.2 hPa 10.0 miles / 16.1 kilometers Calm Calm - N/A   Partly Cloudy
10:55 AM 41.0°F / 5.0°C 32.0°F / 0.0°C 70% 30.10 in / 1019.2 hPa 10.0 miles / 16.1 kilometers Calm Calm - N/A   Clear
11:15 AM 41.0°F / 5.0°C 30.2°F / -1.0°C 65% 30.11 in / 1019.5 hPa 10.0 miles / 16.1 kilometers Calm Calm - N/A   Clear
11:35 AM 41.0°F / 5.0°C 30.2°F / -1.0°C 65% 30.11 in / 1019.5 hPa 10.0 miles / 16.1 kilometers Calm Calm - N/A   Clear
11:55 AM 42.8°F / 6.0°C 28.4°F / -2.0°C 57% 30.11 in / 1019.5 hPa 10.0 miles / 16.1 kilometers Calm Calm - N/A   Clear
12:15 PM 42.8°F / 6.0°C 28.4°F / -2.0°C 57% 30.11 in / 1019.5 hPa 10.0 miles / 16.1 kilometers Calm Calm - N/A   Scattered Clouds
12:35 PM 42.8°F / 6.0°C 28.4°F / -2.0°C 57% 30.12 in / 1019.9 hPa 10.0 miles / 16.1 kilometers Calm Calm - N/A   Partly Cloudy
12:55 PM 42.8°F / 6.0°C 28.4°F / -2.0°C 57% 30.13 in / 1020.2 hPa 10.0 miles / 16.1 kilometers Calm Calm - N/A   Clear
1:15 PM 42.8°F / 6.0°C 28.4°F / -2.0°C 57% 30.13 in / 1020.2 hPa 10.0 miles / 16.1 kilometers Calm Calm - N/A   Clear
1:35 PM 44.6°F / 7.0°C 26.6°F / -3.0°C 49% 30.13 in / 1020.2 hPa 10.0 miles / 16.1 kilometers Calm Calm - N/A   Clear
1:55 PM 44.6°F / 7.0°C 26.6°F / -3.0°C 49% 30.14 in / 1020.5 hPa 10.0 miles / 16.1 kilometers Calm Calm - N/A   Clear
2:15 PM 42.8°F / 6.0°C 24.8°F / -4.0°C 49% 30.14 in / 1020.5 hPa 10.0 miles / 16.1 kilometers Calm Calm - N/A   Clear
2:35 PM 44.6°F / 7.0°C 26.6°F / -3.0°C 49% 30.13 in / 1020.2 hPa 10.0 miles / 16.1 kilometers Calm Calm - N/A   Clear
2:55 PM 42.8°F / 6.0°C 28.4°F / -2.0°C 57% 30.13 in / 1020.2 hPa 10.0 miles / 16.1 kilometers Calm Calm - N/A   Clear
3:15 PM 42.8°F / 6.0°C 28.4°F / -2.0°C 57% 30.13 in / 1020.2 hPa 10.0 miles / 16.1 kilometers Calm Calm - N/A   Clear
3:35 PM 42.8°F / 6.0°C 26.6°F / -3.0°C 53% 30.14 in / 1020.5 hPa 10.0 miles / 16.1 kilometers Calm Calm - N/A   Clear
3:55 PM 42.8°F / 6.0°C 26.6°F / -3.0°C 53% 30.15 in / 1020.9 hPa 10.0 miles / 16.1 kilometers Calm Calm - N/A   Clear
4:15 PM 41.0°F / 5.0°C 28.4°F / -2.0°C 61% 30.15 in / 1020.9 hPa 10.0 miles / 16.1 kilometers Calm Calm - N/A   Clear
4:35 PM 35.6°F / 2.0°C 30.2°F / -1.0°C 81% 30.15 in / 1020.9 hPa 10.0 miles / 16.1 kilometers Calm Calm - N/A   Clear
4:55 PM 33.8°F / 1.0°C 30.2°F / -1.0°C 87% 30.16 in / 1021.2 hPa 10.0 miles / 16.1 kilometers Calm Calm - N/A   Clear
5:15 PM 32.0°F / 0.0°C 28.4°F / -2.0°C 87% 30.16 in / 1021.2 hPa 10.0 miles / 16.1 kilometers Calm Calm - N/A   Clear
5:35 PM 32.0°F / 0.0°C 28.4°F / -2.0°C 87% 30.17 in / 1021.6 hPa 10.0 miles / 16.1 kilometers Calm Calm - N/A   Clear
5:55 PM 32.0°F / 0.0°C 28.4°F / -2.0°C 87% 30.17 in / 1021.6 hPa 10.0 miles / 16.1 kilometers Calm Calm - N/A   Clear
6:15 PM 32.0°F / 0.0°C 28.4°F / -2.0°C 87% 30.18 in / 1021.9 hPa 10.0 miles / 16.1 kilometers Calm Calm - N/A   Clear
6:35 PM 30.2°F / -1.0°C 28.4°F / -2.0°C 93% 30.18 in / 1021.9 hPa 10.0 miles / 16.1 kilometers Calm Calm - N/A   Clear
6:55 PM 28.4°F / -2.0°C 28.4°F / -2.0°C 100% 30.19 in / 1022.2 hPa 10.0 miles / 16.1 kilometers Calm Calm - N/A   Clear
7:15 PM 30.2°F / -1.0°C 28.4°F / -2.0°C 93% 30.18 in / 1021.9 hPa 10.0 miles / 16.1 kilometers Calm Calm - N/A   Clear
7:35 PM 28.4°F / -2.0°C 26.6°F / -3.0°C 93% 30.19 in / 1022.2 hPa 10.0 miles / 16.1 kilometers Calm Calm - N/A   Clear
7:55 PM 30.2°F / -1.0°C 28.4°F / -2.0°C 93% 30.19 in / 1022.2 hPa 10.0 miles / 16.1 kilometers Calm Calm - N/A   Clear
8:15 PM 28.4°F / -2.0°C 26.6°F / -3.0°C 93% 30.19 in / 1022.2 hPa 10.0 miles / 16.1 kilometers Calm Calm - N/A   Clear
8:35 PM 28.4°F / -2.0°C 26.6°F / -3.0°C 93% 30.19 in / 1022.2 hPa 10.0 miles / 16.1 kilometers Calm Calm - N/A   Clear
8:55 PM 28.4°F / -2.0°C 28.4°F / -2.0°C 100% 30.19 in / 1022.2 hPa 10.0 miles / 16.1 kilometers Calm Calm - N/A   Clear
9:15 PM 26.6°F / -3.0°C 26.6°F / -3.0°C 100% 30.19 in / 1022.2 hPa 10.0 miles / 16.1 kilometers Calm Calm - N/A   Clear
9:35 PM 26.6°F / -3.0°C 26.6°F / -3.0°C 100% 30.20 in / 1022.6 hPa 10.0 miles / 16.1 kilometers Calm Calm - N/A   Clear
9:55 PM 26.6°F / -3.0°C 26.6°F / -3.0°C 100% 30.20 in / 1022.6 hPa 10.0 miles / 16.1 kilometers Calm Calm - N/A   Clear
10:35 PM 26.6°F / -3.0°C 26.6°F / -3.0°C 100% 30.21 in / 1022.9 hPa 10.0 miles / 16.1 kilometers Calm Calm - N/A   Clear
10:55 PM 26.6°F / -3.0°C 26.6°F / -3.0°C 100% 30.21 in / 1022.9 hPa 10.0 miles / 16.1 kilometers Calm Calm - N/A   Clear
11:15 PM 26.6°F / -3.0°C 26.6°F / -3.0°C 100% 30.21 in / 1022.9 hPa 10.0 miles / 16.1 kilometers Calm Calm - N/A   Clear
11:35 PM 28.4°F / -2.0°C 28.4°F / -2.0°C 100% 30.21 in / 1022.9 hPa 9.0 miles / 14.5 kilometers Calm Calm - N/A   Clear
11:55 PM 28.4°F / -2.0°C 28.4°F / -2.0°C 100% 30.21 in / 1022.9 hPa 10.0 miles / 16.1 kilometers Calm Calm - N/A   Clear
Moon Phase
Nov. 10 Nov. 13 Nov. 20 Nov. 28 Dec. 06
Sunrise:07:06 AM (PST) Moon Rise:03:04 AM (PST)11/10
Sunset:04:39 PM (PST) Moon Set:02:40 PM (PST)11/10

Copyright © 2014 The Weather Underground, Inc.